This demonstration page uses our WeatherBlox Daily Observations layout. Learn more.

38.89511, -77.03637

Hourly Observations for March 31, 2015

Temp ( °F °C ) Dew Point ( °F °C ) Humidity (%) Winds ( mph kmh ) Pressure ( in mb ) Visibility ( mi km ) Precip ( " mm )
12:52 am 00:52 Mostly Cloudy 50 10 27 -3 40 40 SSW 6 9 29.97 1015 10 16.09344 0 0
1:52 am 01:52 Mostly Cloudy 48 9 27 -3 43 43 SW 7 11 29.94 1014 10 16.09344 0 0
2:52 am 02:52 Partly Cloudy 52 11 25 -4 35 35 SSW 6 9 29.94 1014 10 16.09344 0 0
3:52 am 03:52 Mostly Clear 48 9 25 -4 40 40 SSW 6 9 29.94 1014 10 16.09344 0 0
4:52 am 04:52 Mostly Clear 46 8 25 -4 43 43 SSW 6 9 29.94 1014 10 16.09344 0 0
5:52 am 05:52 Mostly Clear 46 8 27 -3 46 46 SW 3 6 29.94 1014 10 16.09344 0 0
6:52 am 06:52 Mostly Cloudy 45 7 36 2 71 71 S 6 9 29.94 1014 10 16.09344 0 0
7:52 am 07:52 Partly Cloudy 46 8 34 1 62 62 S 5 7 29.94 1014 10 16.09344 0 0
8:52 am 08:52 Partly Cloudy 50 10 30 -1 47 47 S 7 11 29.94 1014 10 16.09344 0 0
9:52 am 09:52 Partly Cloudy 54 12 34 1 47 47 S 10 17 29.91 1013 10 16.09344 0 0
10:52 am 10:52 Partly Cloudy 63 17 30 -1 30 30 S 17 28 29.85 1011 10 16.09344 0 0
11:52 am 11:52 Partly Cloudy 64 18 30 -1 28 28 SSW 22 35 29.8 1009 10 16.09344 0 0
12:52 pm 12:52 Partly Cloudy 66 19 30 -1 26 26 SSW 24 39 29.74 1007 10 16.09344 0 0
1:52 pm 13:52 Partly Cloudy 70 21 32 0 25 25 S 18 30 29.65 1004 10 16.09344 0 0
2:52 pm 14:52 Partly Cloudy 73 23 32 0 22 22 S 23 37 29.62 1003 10 16.09344 0 0
3:52 pm 15:52 Mostly Cloudy 70 21 30 -1 23 23 SSW 18 30 29.59 1002 10 16.09344 0 0
4:52 pm 16:52 Mostly Cloudy with Light Rain 70 21 34 1 27 27 WSW 21 33 29.59 1002 10 16.09344 0.001 0.001
5:52 pm 17:52 Cloudy with Light Rain 66 19 39 4 37 37 W 17 28 29.62 1003 10 16.09344 0.01 0.254
6:38 pm 18:38 Cloudy with Light Thunderstorms 64 18 41 5 43 43 W 7 11 29.62 1003 10 16.09344 0 0
6:52 pm 18:52 Mostly Cloudy with Thunderstorms 66 19 39 4 37 37 WNW 10 17 29.62 1003 10 16.09344 0.001 0.001
6:55 pm 18:55 Mostly Cloudy 66 19 39 4 37 37 WNW 14 22 29.65 1004 10 16.09344 0 0
7:10 pm 19:10 Mostly Cloudy 59 15 41 5 51 51 NNW 30 48 29.68 1005 10 16.09344 0 0
7:52 pm 19:52 Mostly Cloudy with Light Rain 55 13 43 6 63 63 NNW 17 28 29.71 1006 10 16.09344 0.001 0.001
8:52 pm 20:52 Cloudy with Light Rain 55 13 45 7 67 67 N 16 26 29.77 1008 10 16.09344 0.001 0.001
9:52 pm 21:52 Partly Cloudy 54 12 39 4 58 58 N 16 26 29.8 1009 10 16.09344 0.001 0.001
10:52 pm 22:52 Mostly Clear 48 9 37 3 66 66 N 15 24 29.85 1011 10 16.09344 0 0
11:52 pm 23:52 Partly Cloudy 46 8 37 3 71 71 N 21 33 29.88 1012 10 16.09344 0 0

Powered by AerisWeather